DW3795 Weather Reports


Display with metric or nautical units.
time (UTC)temp
F
wind
direction
speed
MPH
gust
MPH
rain 1hr
in
rain 24hr
in
rain mn
in
humidity
%
barometer
mb
20260903163004 99 102 1.0 3.0 0.00 0.00 0.00 50 1016.7
20260903161600 98 158 1.0 6.0 0.00 0.00 0.00 52 1016.8
20260903160057 97 296 1.0 4.0 0.00 0.00 0.00 54 1016.8
20260903154552 96 289 1.0 4.0 0.00 0.00 0.00 56 1017.0
20260903153048 95 205 3.0 6.0 0.00 0.00 0.00 57 1017.1
20260903151545 93 256 0.0 0.0 0.00 0.00 0.00 62 1017.3
20260903150038 92 249 0.0 0.0 0.00 0.00 0.00 65 1017.3
20260903144536 90 248 0.0 2.0 0.00 0.00 0.00 68 1017.4
20260903143030 88 248 0.0 2.0 0.00 0.00 0.00 73 1017.6
20260903141526 85 294 0.0 3.0 0.00 0.00 0.00 77 1017.6
20260903140021 83 289 1.0 3.0 0.00 0.00 0.00 81 1017.3
20260903134517 80 284 0.0 2.0 0.00 0.00 0.00 85 1017.2
20260903133014 78 202 0.0 2.0 0.00 0.00 0.00 91 1017.2
20260903131509 76 206 0.0 1.0 0.00 0.00 0.00 93 1017.3
20260903130006 75 206 0.0 2.0 0.00 0.00 0.00 95 1017.5
20260903124505 74 206 0.0 1.0 0.00 0.00 0.00 95 1017.4
20260903123005 74 209 0.0 0.0 0.00 0.00 0.00 95 1017.5
20260903121507 73 210 0.0 0.0 0.00 0.00 0.00 95 1017.4
20260903120001 72 210 0.0 1.0 0.00 0.00 0.00 95 1017.4
20260903114606 72 210 0.0 0.0 0.00 0.00 0.00 95 1017.3
20260903113058 72 210 0.0 0.0 0.00 0.00 0.00 94 1017.0
20260903111555 72 210 0.0 1.0 0.00 0.00 0.00 95 1017.1
20260903110100 72 210 0.0 0.0 0.00 0.00 0.00 94 1016.8
20260903104553 71 210 0.0 0.0 0.00 0.00 0.00 94 1016.6
20260903103049 71 210 0.0 0.0 0.00 0.00 0.00 94 1016.4
20260903101550 72 210 0.0 0.0 0.00 0.00 0.00 94 1016.5
20260903100048 72 210 0.0 0.0 0.00 0.00 0.00 94 1016.4
20260903094545 72 210 0.0 0.0 0.00 0.00 0.00 94 1016.4
20260903093044 72 210 0.0 0.0 0.00 0.00 0.00 93 1016.5
20260903091542 72 210 0.0 0.0 0.00 0.00 0.00 93 1016.6
20260903090042 73 210 0.0 0.0 0.00 0.00 0.00 93 1016.5
20260903084540 73 210 0.0 0.0 0.00 0.00 0.00 93 1016.5
20260903083044 73 210 0.0 0.0 0.00 0.00 0.00 93 1016.4
20260903081537 73 210 0.0 0.0 0.00 0.00 0.00 93 1016.4
20260903080035 73 210 0.0 1.0 0.00 0.00 0.00 92 1016.3
20260903074533 73 210 0.0 1.0 0.00 0.00 0.00 92 1016.3
20260903073036 73 210 0.0 0.0 0.00 0.00 0.00 92 1016.2
20260903071532 74 210 0.0 1.0 0.00 0.00 0.00 92 1016.0
20260903070030 74 210 0.0 0.0 0.00 0.00 0.00 91 1016.1
20260903064528 74 210 0.0 1.0 0.00 0.00 0.00 91 1016.2
20260903063028 74 210 0.0 0.0 0.00 0.00 0.00 91 1016.1
20260903061539 74 210 0.0 1.0 0.00 0.00 0.00 91 1016.1
20260903060024 75 210 0.0 1.0 0.00 0.00 0.00 90 1016.2
20260903054522 75 210 0.0 1.0 0.00 0.00 0.00 90 1016.2
20260903053021 75 210 0.0 1.0 0.00 0.00 0.00 90 1016.1
20260903051519 75 210 0.0 1.0 0.00 0.00 0.00 89 1016.4
20260903050017 76 210 0.0 1.0 0.00 0.00 0.00 89 1016.3
20260903044515 76 210 0.0 0.0 0.00 0.00 0.00 88 1016.4
20260903043017 76 210 0.0 0.0 0.00 0.00 0.00 88 1016.3
20260903041518 77 210 0.0 0.0 0.00 0.00 0.00 87 1016.3
20260903040011 77 210 0.0 2.0 0.00 0.00 0.00 87 1016.4
20260903034613 77 209 0.0 1.0 0.00 0.00 0.00 86 1016.4
20260903033015 78 209 0.0 0.0 0.00 0.00 0.00 85 1016.3
20260903031519 78 209 0.0 1.0 0.00 0.00 0.00 85 1016.4
20260903030012 79 209 0.0 2.0 0.00 0.00 0.00 84 1016.3
20260903024508 79 209 0.0 2.0 0.00 0.00 0.00 84 1016.2
20260903023009 79 190 0.0 0.0 0.00 0.00 0.00 83 1016.4
20260903021507 80 190 0.0 0.0 0.00 0.00 0.00 82 1016.5
20260903020106 80 190 0.0 1.0 0.00 0.00 0.00 82 1016.6
20260903014505 81 190 0.0 1.0 0.00 0.00 0.00 81 1016.5
20260903013005 81 190 0.0 1.0 0.00 0.00 0.00 80 1016.6
20260903011504 82 189 0.0 0.0 0.00 0.00 0.00 78 1016.4
20260903010009 83 188 0.0 1.0 0.00 0.00 0.00 77 1016.2
20260903004506 84 188 0.0 1.0 0.00 0.00 0.00 75 1016.2
20260903003002 84 188 0.0 1.0 0.00 0.00 0.00 73 1016.1
20260903001501 85 188 0.0 1.0 0.00 0.00 0.00 71 1015.9
20260903000001 87 188 0.0 0.0 0.00 0.00 0.00 69 1015.7
20260902234608 88 189 0.0 1.0 0.00 0.00 0.00 67 1015.8
20260902233159 90 188 0.0 1.0 0.00 0.00 0.00 65 1015.7
20260902231558 91 188 0.0 2.0 0.00 0.00 0.00 63 1015.8
20260902230101 93 202 0.0 2.0 0.00 0.00 0.00 60 1015.8
20260902224605 94 202 0.0 3.0 0.00 0.00 0.00 58 1015.8
20260902223056 94 173 2.0 5.0 0.00 0.00 0.00 55 1015.5
20260902221556 95 249 0.0 7.0 0.00 0.00 0.00 55 1015.6
20260902220058 95 206 2.0 6.0 0.00 0.00 0.00 53 1015.4
20260902214556 95 269 1.0 5.0 0.00 0.00 0.00 54 1015.4
20260902213054 95 158 0.0 4.0 0.00 0.00 0.00 56 1015.3
20260902211553 94 151 0.0 1.0 0.00 0.00 0.00 58 1015.3
20260902210052 96 151 0.0 1.0 0.00 0.00 0.00 54 1015.4
20260902204552 99 151 0.0 1.0 0.00 0.00 0.00 50 1015.5
20260902203052 101 151 0.0 2.0 0.00 0.00 0.00 44 1015.5
20260902201555 101 151 0.0 2.0 0.00 0.00 0.00 43 1015.6
20260902200048 100 172 0.0 3.0 0.00 0.00 0.00 44 1015.8
20260902194553 101 148 0.0 2.0 0.00 0.00 0.00 46 1016.0
20260902193045 102 148 0.0 3.0 0.00 0.00 0.00 43 1016.1
20260902191544 104 139 1.0 4.0 0.00 0.00 0.00 41 1016.2
20260902190043 103 160 2.0 4.0 0.00 0.00 0.00 40 1016.3
20260902184542 103 215 1.0 7.0 0.00 0.00 0.00 39 1016.4
20260902183038 102 64 1.0 5.0 0.00 0.00 0.00 40 1016.6
20260902181539 103 104 1.0 4.0 0.00 0.00 0.00 42 1016.7
20260902180035 102 226 1.0 3.0 0.00 0.00 0.00 42 1016.8
20260902174530 101 102 1.0 3.0 0.00 0.00 0.00 42 1016.9
20260902173028 100 163 1.0 7.0 0.00 0.00 0.00 43 1017.1
20260902171526 99 269 1.0 3.0 0.00 0.00 0.00 44 1017.2
20260902170023 99 156 6.0 10.0 0.00 0.00 0.00 44 1017.4
20260902164519 99 163 0.0 7.0 0.00 0.00 0.00 48 1017.6